Showing default

DRAGRACER 2(AUGURY), 46955

Orbit data source: Space-Track

DRAGRACER 2(AUGURY), 46955 is a payload satellite owned by TriSept (US) in SSO that was launched on Fri, 20 Nov 2020 UTC via an ELECTRON launch vehicle from the Rocket Lab Launch Complex (RLLC). Payload-class satellites include a variety of spacecraft equipped with specific instruments for various scientific and technological missions. These include communications satellites like Starlink; space stations such as the ISS; scientific satellites like the Hubble; Earth observation satellites from companies like Planet Labs, Umbra, and HawkEye 360; GPS; miniature CubeSats for education and research; and military/defense satellites.

Loading next visibility...
Identifier
46955, 2020-085AC
Orbit
SSO
Country
Flag of USUS
Related business
Manufacturer
Millenium ES
Mission
Operational Commercial Technology
Bus & Motor
CUBESAT 6U, Unknown motor
Mass
12 kg wet, 12 kg dry
Launch date (UTC)
2020-11-20 (6 years ago)
Launch vehicle
ELECTRON
Launch site
Rocket Lab Launch Complex (RLLC)
Object type
Payload
Rocket body
Debris
Shape & HBR
Box, 0.1 m
Radar Cross Section
0.080 m², Medium (>0.1 m² and < 1m²)

Expand to show TLE details & history
Last TLE update: 6 hours ago

TLE from 6 hours ago
0 DRAGRACER 2(AUGURY)
1 46955U 20085AC  26251.55679633  .00057136  00000-0  34445-3 0  9999
2 46955  97.5720  95.2018 0002672 324.3615  35.7472 15.77517714324986
Epoch: 2026-09-08T13:21Z
TLE epoch observation values (Epoch: 2026-09-08T13:21:47.202Z)
Latitude
-0.00004°
Longitude
-92.86638°
Altitude
339.183 km
Speed
7.706 km/s
True Right ascension
06h 20m 48s
True Declination
0° 00' 00"
Sunlit
Object was in daylight at epoch
Visualization orbit readout
Latitude
Unknown
Longitude
Unknown
Altitude
Unknown
Speed
Unknown
Apparent Right ascension
Unknown
Apparent Declination
Unknown
Sunlit
N/A
Visualization observer readout
Local Sidereal Time
11:35:07
Azimuth
Unknown
Elevation
Unknown
Doppler factor
Unknown
Orbital elements
Apogee altitude
336.167 km
Perigee altitude
332.58 km
Semi-major axis
6,712.51 km
Eccentricity
0.00027
Inclination
97.572°
RAAN
95.2018°
Arg. of periapsis
324.3615°
True anomaly
35.76509°
Mean anomaly
35.7472°
Eccentric anomaly
35.75615°
Mean motion
3.94653 °/min
Orbital period
91.22 mins
BSTAR
0.00034445
Loading maneuver chart data...
Computing Atmospheric mass density...

Documentation

Showing up to 5 results
|